Terug naar catalogus

COSMOS 1275 DEB

LostPO
NORAD 39953·DEBRIS·🇷🇺 Russia

Gelanceerd Jun 4, 1981 vanaf Plesetsk Cosmodrome

Loading…

Volgende Passages (komende 24 uur)

TLE

VerouderdSource: Space-Track

Epoch: Aug 14, 2025, 12:22 UTC

1 39953U 81053NP  25226.51591066  .00000122  00000-0  13908-3 0  9995
2 39953  82.9728 322.8720 0179235  67.2313 306.8259 13.55031655 12134

Volg COSMOS 1275 DEB in realtime met AllMySat

Download on the App Store